Tracking 20942 objects as of 10-Jul-2020
HD Live streaming from Space Station
objects crossing your sky now

DELTA 1 DEB

Track DELTA 1 DEB now!
10-day predictions


NORAD ID: 14497
Int'l Code: 1977-065FN
Perigee: 948.6 km
Apogee: 2,381.5 km
Inclination: 29.3 °
Period: 119.5 minutes
Semi major axis: 8036 km
RCS: 0.1116 m2 (medium)
Launch date: July 14, 1977
Source: United States (US)
Launch site: AIR FORCE EASTERN TEST RANGE (AFETR)

Note: This is SATELLITE DEBRIS
aabbcc
Your satellite tracking list
Your tracking list is empty




NASA's NSSDC Master Catalog

Two Line Element Set (TLE):
1 14497U 77065FN  20191.83958160 -.00001445  00000-0 -51910-2 0  9997
2 14497  29.2941 329.0667 0891602  28.6204 129.1494 12.05145213719084
Source of the keplerian elements: AFSPC